Mason City, IA

5:18 PM CDT on October 20, 2017 (GMT -0500)
Mason City Municipal

Weather History for KMCW - May, 2014

Change the Weather History Date:

Thursday, May 29, 2014

  Actual Average Record
Temperature  
Mean Temperature 70 °F 63 °F  
Max Temperature 86 °F 74 °F 98 °F (1934)
Min Temperature 54 °F 51 °F 31 °F (1947)
Degree Days  
Heating Degree Days 0 4  
Month to date heating degree days 247 227  
Since 1 July heating degree days 8610 7627  
Cooling Degree Days 5 2  
Month to date cooling degree days 31 25  
Year to date cooling degree days 31 30  
Growing Degree Days 19 (Base 50)    
Moisture  
Dew Point 52 °F    
Average Humidity 52    
Maximum Humidity 77    
Minimum Humidity 26    
Precipitation  
Precipitation 0.00 in 0.16 in 3.68 in (1980)
Month to date precipitation 2.17 4.36  
Year to date precipitation 13.88 12.16  
Snow  
Snow 0.00 in 0.00 in 0.50 in (1947)
Month to date snowfall 0.0 0.1  
Since 1 July snowfall 58.0 41.3  
Snow Depth 0.00 in    
Sea Level Pressure  
Sea Level Pressure 30.05 in    
Wind  
Wind Speed 10 mph (East)    
Max Wind Speed 17 mph    
Max Gust Speed 22 mph    
Visibility 10 miles    
Events      
T = Trace of Precipitation, MM = Missing Value Source: NWS Daily Summary

Daily Weather History Graph

Daily Weather History Graph

Search for Another Location

Airport or City:

Trip Planner

Search our weather history database for the weather conditions in past years. The results will help you decide how hot, cold, wet, or windy it might be!

Date:

Astronomy

May. 29, 2014 Rise Set
Actual Time 5:38 AM CDT 8:43 PM CDT
Civil Twilight 5:03 AM CDT 9:18 PM CDT
Nautical Twilight 4:19 AM CDT 10:02 PM CDT
Astronomical Twilight 3:27 AM CDT 10:55 PM CDT
Moon 6:33 AM CDT (5/29) 9:33 PM CDT (5/29)
Length of Visible Light 16h 14m
Length of Day
15h 05m
New Moon, 1% of the Moon is Illuminated
May 29
New Moon
Jun 5
First Quarter
Jun 12
Full
Jun 19
Last Quarter
Jun 27
New

Hourly Weather History & Observations

Time (CDT) Temp. Heat Index Dew Point Humidity Pressure Visibility Wind Dir Wind Speed Gust Speed Precip Events Conditions
12:53 AM 64.4 °F - 42.8 °F 45% 30.08 in 10.0 mi East 6.9 mph - N/A   Clear
1:53 AM 59.0 °F - 44.1 °F 58% 30.04 in 10.0 mi East 6.9 mph - N/A   Clear
2:53 AM 57.2 °F - 44.6 °F 63% 30.07 in 10.0 mi East 3.5 mph - N/A   Clear
3:53 AM 54.0 °F - 46.0 °F 75% 30.06 in 10.0 mi ENE 3.5 mph - N/A   Clear
4:53 AM 55.0 °F - 46.0 °F 72% 30.06 in 10.0 mi NE 5.8 mph - N/A   Clear
5:53 AM 55.9 °F - 48.0 °F 75% 30.08 in 9.0 mi NE 6.9 mph - N/A   Clear
6:53 AM 60.1 °F - 50.0 °F 69% 30.09 in 10.0 mi East 8.1 mph - N/A   Clear
7:53 AM 64.0 °F - 50.0 °F 60% 30.10 in 10.0 mi ENE 10.4 mph - N/A   Clear
8:53 AM 66.9 °F - 51.1 °F 57% 30.12 in 10.0 mi ENE 12.7 mph - N/A   Clear
9:53 AM 72.0 °F - 53.1 °F 51% 30.09 in 10.0 mi ESE 13.8 mph - N/A   Clear
10:53 AM 75.9 °F - 46.9 °F 36% 30.08 in 10.0 mi East 9.2 mph - N/A   Clear
11:53 AM 80.1 °F - 46.0 °F 30% 30.07 in 10.0 mi ESE 10.4 mph 18.4 mph N/A   Clear
12:53 PM 82.0 °F - 44.1 °F 26% 30.05 in 10.0 mi ESE 10.4 mph - N/A   Clear
1:53 PM 84.0 °F - 46.9 °F 27% 30.04 in 10.0 mi East 11.5 mph 18.4 mph N/A   Clear
2:53 PM 84.9 °F - 52.0 °F 32% 30.03 in 10.0 mi North - - N/A   Clear
3:53 PM 84.0 °F 82.9 °F 55.0 °F 37% 30.02 in 10.0 mi ESE 12.7 mph - N/A   Scattered Clouds
4:53 PM 82.4 °F 82.0 °F 57.2 °F 42% 30.04 in 10.0 mi East 10.4 mph - N/A   Partly Cloudy
5:53 PM 84.9 °F 84.4 °F 59.0 °F 41% 30.00 in 10.0 mi ESE 10.4 mph - N/A   Mostly Cloudy
6:53 PM 82.9 °F 82.8 °F 59.0 °F 44% 30.00 in 10.0 mi ESE 13.8 mph - N/A   Clear
7:53 PM 82.0 °F 82.1 °F 59.0 °F 45% 30.01 in 10.0 mi East 15.0 mph - N/A   Clear
8:53 PM 79.0 °F - 60.1 °F 52% 30.02 in 10.0 mi ESE 10.4 mph - N/A   Clear
9:53 PM 75.9 °F - 61.0 °F 60% 30.04 in 10.0 mi ESE 11.5 mph - N/A   Clear
10:53 PM 75.0 °F - 61.0 °F 62% 30.05 in 10.0 mi ESE 9.2 mph - N/A   Clear
11:53 PM 73.0 °F - 61.0 °F 66% 30.05 in 10.0 mi ESE 11.5 mph - N/A   Clear